Wind_Speed
13 15 16 17 18 19 19 19 19 19 18 18 18 19 19 19 19 19 20 20 21 21 21 22 22 23 23 23 24 25 26 26 27 28 28 29 29 29 29 30 30 30 30
10 12 13 14 16 16 17 18 19 19 19 19 19 19 19 19 20 21 21 22 23 24 24 25 26 26 26 27 28 29 30 30 31 32 33 33 34 34 34 34 35 34 35
8 11 12 12 13 14 16 17 18 18 19 19 20 20 21 21 22 22 23 24 26 26 27 28 29 29 30 31 31 32 33 34 34 36 37 37 38 38 38 39 39 39 39
9 10 11 12 13 14 15 17 17 18 19 20 20 21 22 23 23 24 25 25 27 28 29 30 31 31 33 34 34 35 36 37 38 39 40 41 42 42 43 43 43 43 43
10 10 11 12 13 13 14 16 17 17 18 20 21 22 23 24 25 26 27 27 28 30 31 32 33 34 35 36 37 38 39 40 41 41 42 43 44 45 45 46 46 46 46
11 11 12 13 14 14 14 15 17 18 20 21 21 22 23 24 25 27 28 29 31 32 33 34 35 36 37 38 39 40 41 43 44 45 45 45 46 47 49 49 50 50 50
12 13 14 14 15 15 16 17 18 20 21 22 24 24 26 27 27 28 30 32 33 34 36 37 38 39 40 40 41 43 45 45 46 48 49 50 51 52 52 53 54 54 53
15 16 16 16 17 18 18 19 20 21 23 24 25 26 27 28 29 31 32 34 35 37 39 40 41 42 44 45 46 47 48 49 50 51 52 52 54 55 55 55 56 56 55
18 19 19 19 20 21 21 21 22 23 23 25 26 27 28 30 31 32 34 35 37 39 41 43 44 45 46 48 49 50 51 52 52 52 53 54 55 56 56 57 57 57 57
21 22 22 23 23 23 23 23 23 25 26 27 29 30 31 33 34 36 37 38 39 41 43 45 46 47 48 49 50 51 52 53 54 55 56 57 57 58 58 59 59 60 60
24 25 25 25 25 24 25 26 27 28 29 30 31 32 34 36 37 38 39 41 42 43 45 46 47 48 49 51 52 53 54 55 56 57 58 59 60 60 61 62 62 63 63
28 27 27 27 27 27 28 28 29 30 31 33 34 35 37 38 39 40 42 43 44 45 47 48 50 51 53 54 55 56 57 58 59 60 61 61 62 63 64 65 65 65 65
29 29 29 28 28 29 30 31 32 32 33 35 36 38 39 40 42 43 43 45 46 47 49 51 53 55 56 57 58 60 61 62 62 63 63 64 65 65 66 66 66 67 67
29 29 29 30 30 31 31 32 32 33 35 36 37 39 40 42 43 44 46 48 49 51 53 55 57 58 59 61 62 63 63 63 64 64 65 65 65 66 66 66 67 68 67
30 29 29 29 30 31 32 33 34 35 37 38 40 41 42 44 46 48 49 51 53 55 56 58 59 60 61 62 62 63 63 63 63 63 63 63 63 63 63 63 63 63 62
28 27 28 29 30 31 33 34 35 37 39 41 42 44 45 47 49 51 53 54 56 57 58 59 59 60 60 60 60 60 60 59 59 59 59 59 58 58 57 57 57 56 55
27 28 29 30 31 33 34 36 37 39 41 43 45 47 49 50 52 54 55 56 56 57 57 58 58 58 57 56 56 55 55 55 54 53 53 52 52 51 51 50 50 49 49
27 28 30 31 33 35 37 39 41 43 45 47 49 50 52 53 54 54 55 55 55 55 55 55 54 53 51 51 50 49 48 47 46 46 46 45 45 45 44 44 43 43 43
28 30 32 34 35 37 39 42 44 46 48 50 51 52 52 53 53 53 53 52 52 52 51 49 48 47 46 45 43 42 41 41 41 40 40 40 40 39 39 38 38 38 37
30 32 34 36 38 40 42 45 47 48 49 50 51 51 52 51 51 50 49 49 48 47 46 45 44 43 42 40 39 38 38 38 37 37 37 37 36 35 35 35 34 33 33
32 34 36 39 41 43 45 47 48 48 49 50 50 50 49 48 47 47 46 45 44 43 42 41 40 39 38 37 36 36 35 35 35 34 34 34 33 33 32 31 29 29 28
36 38 40 42 44 45 46 47 48 48 48 48 48 47 46 45 44 44 43 42 41 40 39 38 37 36 35 34 34 33 33 33 33 33 32 32 31 30 29 28 27 26 25
39 41 43 44 44 45 46 47 47 47 46 45 45 44 42 42 41 41 40 39 38 37 36 35 34 33 32 32 31 31 31 31 31 31 30 29 29 28 27 26 25 25 24
41 42 43 44 44 45 45 44 44 44 43 42 41 40 39 39 38 38 37 36 35 35 34 33 33 32 31 31 30 30 30 29 29 29 28 27 26 25 25 24 24 23 22
40 41 42 42 43 43 42 42 41 41 40 39 38 38 37 37 36 36 35 35 34 33 33 32 31 31 30 30 30 30 29 28 27 27 26 25 24 24 23 23 22 22 21
39 40 40 40 40 40 39 39 38 37 37 36 36 35 35 35 35 34 34 33 33 32 32 31 31 31 30 30 29 29 28 27 27 26 25 24 23 23 22 22 22 22 21
Wind_Direction
210 210 214 217 217 220 221 222 225 228 231 235 238 240 243 245 246 249 251 253 255 257 259 260 262 264 266 267 268 270 271 272 274 274 275 275 275 275 276 276 276 276 276
212 213 217 219 218 223 228 229 230 234 237 239 241 242 245 248 251 254 256 257 259 261 262 263 264 265 266 267 269 270 271 272 273 274 275 274 275 275 275 276 275 275 275
214 214 217 222 225 228 231 233 235 238 240 241 244 248 250 253 256 258 259 261 262 263 265 266 267 268 268 269 270 271 271 272 274 275 276 276 276 276 276 276 276 276 276
221 219 224 227 230 236 238 239 242 243 243 244 247 252 255 256 260 263 264 265 264 265 267 268 270 271 271 272 272 273 273 273 274 275 275 276 277 277 277 277 277 277 277
238 235 232 235 239 242 243 242 241 243 246 249 252 256 258 261 265 267 267 268 269 268 269 271 271 273 274 274 274 274 274 274 274 275 276 276 275 275 275 276 276 276 277
253 250 246 245 249 250 247 244 246 248 250 253 256 260 264 267 269 270 270 272 272 272 272 273 274 275 275 275 275 276 276 276 276 276 277 277 276 276 275 276 276 276 276
263 260 254 255 256 255 252 252 254 254 254 256 260 264 268 271 273 273 273 275 276 275 275 275 276 276 278 278 278 277 278 278 277 278 279 280 279 278 278 277 277 276 276
263 261 260 260 259 258 258 259 262 263 263 263 267 268 271 274 275 276 276 277 278 278 278 278 278 278 279 280 280 280 280 279 280 280 281 281 280 280 279 278 277 276 276
264 263 262 263 264 261 261 263 266 266 267 269 273 275 275 275 278 279 279 279 279 280 280 280 280 280 281 281 282 282 281 281 281 281 281 281 280 280 280 279 277 277 277
263 263 264 264 265 264 262 263 264 267 270 272 275 276 278 279 280 281 281 282 282 282 282 282 282 282 283 283 282 282 282 282 282 282 282 282 281 280 280 279 278 278 278
263 263 264 265 264 263 264 265 267 270 272 275 277 279 281 282 283 284 283 282 282 283 283 283 282 282 283 283 283 282 282 282 282 283 282 282 282 281 281 280 280 280 280
262 263 264 266 265 265 267 269 271 273 276 279 281 282 283 284 285 284 284 284 284 284 284 284 283 283 283 283 283 283 283 283 283 283 282 282 282 281 281 281 281 281 280
259 261 262 264 265 266 269 272 274 277 279 280 282 283 284 285 286 286 286 286 285 285 285 285 284 284 284 284 284 285 284 284 284 284 283 283 283 283 282 282 282 282 281
258 259 262 264 266 268 272 274 277 279 281 283 284 286 287 287 288 287 287 287 287 287 286 286 286 286 286 287 287 286 286 286 285 285 284 284 284 284 283 282 282 281 281
259 262 265 269 271 273 274 278 281 283 285 286 286 287 288 288 288 288 289 289 289 289 289 289 289 289 289 289 288 288 287 287 286 285 285 285 284 284 284 283 282 282 281
263 265 268 271 273 276 278 281 283 285 286 287 288 289 290 290 291 291 291 291 291 291 291 292 292 292 291 291 291 290 289 288 288 287 287 287 286 285 285 284 284 283 283
265 267 271 274 277 280 282 284 286 287 289 290 291 292 293 293 293 293 294 294 294 294 294 294 294 293 293 293 292 291 291 290 289 289 288 288 288 287 287 286 285 284 284
270 273 275 278 281 284 286 288 289 290 291 292 293 294 295 295 295 296 296 296 296 296 296 296 295 295 294 294 294 294 293 293 292 291 290 290 289 289 288 288 287 286 285
277 279 281 283 286 288 290 291 292 293 294 295 295 296 296 297 298 298 298 298 299 299 298 298 297 297 296 296 296 295 295 295 294 293 293 292 292 291 290 289 288 287 286
282 285 287 289 290 291 292 293 295 296 296 297 298 298 299 299 300 300 300 300 301 300 300 299 299 299 298 297 296 296 296 296 295 294 294 295 294 293 293 292 290 289 288
288 290 291 292 293 294 295 296 297 298 299 299 300 300 301 301 301 302 302 302 302 301 301 300 300 300 299 298 298 298 297 297 296 296 296 296 296 295 296 295 293 291 290
293 293 294 295 296 297 298 299 299 300 300 301 301 302 301 301 301 302 303 303 302 301 301 301 301 300 300 299 299 299 298 298 298 298 298 297 297 296 296 296 295 294 293
295 295 296 297 298 299 299 300 300 301 301 301 302 302 302 302 302 303 303 302 302 301 301 301 300 300 300 301 301 300 300 299 299 299 299 298 297 296 296 296 295 295 294
297 298 298 299 299 300 300 301 302 302 302 302 302 302 302 303 303 303 303 302 302 302 302 301 300 300 300 301 301 301 301 300 300 300 299 298 297 296 296 296 296 295 295
300 300 300 300 301 301 302 303 303 303 302 302 302 303 303 303 304 303 303 302 302 302 302 301 300 300 300 300 301 301 301 301 301 301 301 298 296 296 296 295 295 295 295
302 303 303 303 303 303 303 303 303 303 303 303 303 304 304 304 304 303 302 302 302 301 301 300 300 300 299 300 300 301 301 301 301 302 302 301 298 297 296 295 293 293 294
Height
5830 5832 5834 5837 5840 5842 5845 5847 5850 5852 5854 5856 5858 5859 5860 5861 5862 5863 5863 5864 5864 5865 5865 5865 5865 5865 5865 5865 5864 5864 5863 5862 5861 5860 5860 5859 5858 5857 5856 5855 5854 5854 5853
5829 5831 5833 5835 5837 5840 5842 5844 5847 5849 5850 5852 5853 5855 5856 5857 5857 5858 5858 5859 5859 5859 5859 5859 5859 5859 5858 5858 5857 5857 5856 5855 5854 5853 5852 5851 5850 5849 5848 5847 5846 5845 5845
5829 5830 5832 5834 5836 5837 5839 5841 5843 5844 5846 5847 5849 5850 5851 5852 5852 5852 5852 5853 5853 5852 5852 5852 5852 5852 5851 5851 5850 5849 5848 5847 5846 5845 5844 5842 5841 5840 5839 5838 5837 5836 5835
5829 5830 5831 5832 5834 5835 5836 5837 5839 5840 5842 5843 5844 5845 5846 5846 5846 5846 5846 5846 5845 5845 5845 5845 5845 5844 5843 5842 5841 5840 5839 5838 5837 5836 5834 5833 5831 5830 5828 5827 5826 5825 5824
5828 5828 5829 5830 5831 5832 5833 5834 5835 5836 5837 5838 5839 5839 5840 5840 5840 5839 5839 5838 5838 5838 5837 5837 5836 5835 5834 5833 5832 5831 5829 5828 5827 5825 5824 5822 5820 5819 5817 5816 5814 5813 5812
5826 5826 5827 5828 5828 5829 5829 5830 5831 5832 5832 5833 5833 5834 5834 5833 5833 5832 5832 5831 5830 5829 5828 5828 5827 5825 5824 5822 5821 5820 5818 5817 5815 5813 5812 5810 5808 5806 5805 5803 5801 5800 5799
5823 5823 5824 5824 5825 5825 5826 5826 5826 5826 5827 5827 5827 5827 5827 5826 5826 5825 5824 5823 5822 5821 5819 5818 5817 5815 5813 5812 5810 5808 5806 5804 5803 5801 5798 5797 5794 5793 5791 5789 5787 5786 5784
5819 5819 5820 5820 5821 5821 5821 5821 5821 5821 5821 5821 5820 5820 5819 5819 5818 5817 5816 5814 5813 5811 5810 5808 5806 5804 5802 5800 5798 5795 5793 5791 5789 5787 5784 5782 5780 5777 5775 5773 5771 5770 5769
5814 5814 5815 5815 5815 5816 5816 5816 5815 5815 5814 5814 5813 5813 5812 5811 5810 5809 5807 5805 5803 5801 5799 5797 5794 5792 5790 5787 5785 5782 5779 5776 5774 5771 5769 5766 5764 5762 5759 5757 5755 5753 5752
5809 5809 5809 5809 5809 5809 5809 5809 5809 5808 5807 5806 5805 5804 5803 5802 5801 5799 5797 5795 5793 5790 5788 5785 5782 5780 5777 5774 5771 5768 5765 5762 5759 5756 5753 5751 5748 5745 5742 5740 5737 5735 5734
5803 5803 5803 5803 5803 5803 5802 5802 5801 5801 5799 5798 5797 5795 5794 5792 5791 5789 5786 5784 5781 5778 5775 5772 5770 5767 5763 5760 5757 5753 5750 5746 5743 5740 5737 5733 5730 5727 5724 5722 5719 5717 5715
5796 5796 5796 5796 5796 5795 5795 5794 5793 5792 5791 5789 5788 5786 5784 5782 5780 5777 5775 5772 5769 5766 5763 5759 5756 5753 5749 5745 5742 5738 5734 5730 5727 5723 5719 5716 5712 5709 5706 5703 5700 5697 5695
5788 5788 5788 5788 5788 5787 5786 5786 5785 5783 5781 5780 5778 5776 5774 5771 5768 5766 5763 5760 5756 5753 5749 5745 5741 5737 5733 5729 5726 5721 5717 5713 5709 5705 5701 5698 5694 5690 5686 5683 5680 5678 5675
5780 5780 5780 5779 5779 5778 5778 5777 5775 5774 5772 5770 5767 5765 5762 5760 5756 5753 5750 5747 5743 5739 5734 5730 5726 5721 5716 5712 5707 5703 5699 5695 5690 5686 5682 5678 5674 5670 5666 5663 5660 5657 5655
5772 5772 5771 5771 5770 5769 5769 5767 5766 5764 5762 5760 5757 5754 5751 5747 5744 5740 5736 5732 5727 5723 5718 5713 5708 5703 5698 5693 5688 5684 5679 5675 5670 5666 5662 5658 5654 5650 5646 5642 5639 5636 5633
5764 5764 5763 5763 5762 5761 5760 5758 5755 5754 5751 5748 5745 5742 5738 5734 5730 5726 5721 5716 5711 5706 5701 5695 5690 5685 5679 5674 5669 5664 5659 5655 5650 5646 5642 5638 5634 5631 5627 5623 5619 5616 5614
5756 5755 5755 5754 5753 5751 5750 5747 5745 5743 5740 5736 5733 5729 5725 5720 5716 5711 5706 5700 5695 5689 5684 5678 5672 5667 5662 5656 5651 5646 5642 5637 5632 5628 5624 5621 5617 5613 5610 5606 5603 5600 5597
5749 5747 5746 5745 5743 5741 5739 5736 5734 5731 5728 5723 5719 5715 5710 5705 5700 5695 5689 5684 5678 5673 5667 5661 5656 5650 5645 5640 5635 5630 5626 5621 5617 5613 5609 5606 5602 5598 5595 5591 5588 5585 5582
5741 5740 5738 5737 5734 5731 5728 5725 5722 5718 5714 5709 5705 5700 5695 5690 5685 5679 5673 5668 5662 5656 5651 5645 5640 5635 5630 5626 5621 5616 5612 5608 5604 5600 5596 5593 5589 5585 5582 5578 5575 5572 5569
5734 5732 5730 5727 5724 5721 5717 5713 5709 5704 5700 5695 5690 5685 5679 5674 5669 5664 5659 5653 5647 5642 5637 5632 5627 5622 5617 5613 5608 5604 5600 5596 5592 5589 5585 5581 5577 5574 5570 5567 5564 5561 5558
5725 5722 5719 5716 5713 5709 5704 5700 5695 5691 5686 5681 5676 5670 5665 5660 5655 5650 5644 5639 5634 5629 5624 5619 5614 5610 5605 5601 5597 5593 5589 5585 5582 5578 5574 5570 5567 5563 5560 5556 5553 5551 5548
5715 5712 5708 5705 5700 5696 5691 5687 5682 5677 5672 5667 5662 5657 5652 5647 5642 5637 5632 5627 5622 5617 5612 5608 5603 5599 5595 5591 5587 5583 5579 5576 5572 5568 5564 5560 5557 5554 5551 5548 5545 5542 5540
5703 5700 5696 5692 5687 5683 5678 5674 5669 5664 5659 5654 5649 5644 5640 5635 5630 5625 5620 5616 5611 5606 5602 5598 5594 5589 5585 5581 5578 5574 5570 5567 5563 5559 5555 5552 5548 5545 5542 5539 5537 5535 5532
5692 5687 5683 5679 5675 5670 5666 5661 5656 5651 5646 5642 5637 5633 5628 5624 5619 5614 5610 5605 5601 5596 5592 5588 5584 5580 5576 5572 5569 5565 5561 5558 5554 5551 5547 5544 5541 5538 5535 5532 5530 5527 5525
5680 5676 5671 5667 5663 5658 5653 5649 5644 5639 5635 5631 5626 5622 5617 5613 5608 5604 5599 5595 5591 5587 5583 5579 5575 5571 5567 5564 5560 5557 5553 5549 5546 5543 5539 5536 5533 5530 5528 5525 5523 5521 5519
5669 5664 5660 5655 5651 5646 5642 5637 5633 5629 5624 5620 5616 5611 5607 5603 5598 5594 5590 5586 5581 5577 5573 5570 5566 5562 5559 5555 5552 5548 5545 5542 5538 5535 5532 5529 5526 5523 5521 5519 5516 5514 5512